| time (UTC) | temp C | wind direction | speed KPH | gust KPH | rain 1hr cm | rain 24hr cm | rain mn cm | humidity % | barometer mb |
| 20260902140752 | 19 | 61 | 16.1 | 33.8 | 0.00 | 0.00 | 0.00 | 59 | 1007.9 |
| 20260902135253 | 18 | 46 | 14.5 | 29.0 | 0.00 | 0.00 | 0.00 | 60 | 1008.2 |
| 20260902133755 | 17 | 59 | 25.7 | 25.7 | 0.00 | 0.00 | 0.00 | 61 | 1008.2 |
| 20260902132258 | 17 | 42 | 9.7 | 24.1 | 0.00 | 0.00 | 0.00 | 62 | 1008.3 |
| 20260902130758 | 16 | 69 | 4.8 | 19.3 | 0.00 | 0.00 | 0.00 | 63 | 1008.4 |
| 20260902125241 | 16 | 67 | 8.0 | 20.9 | 0.00 | 0.00 | 0.00 | 62 | 1008.5 |
| 20260902123741 | 17 | 42 | 11.3 | 19.3 | 0.00 | 0.00 | 0.00 | 61 | 1008.6 |
| 20260902122242 | 17 | 41 | 4.8 | 16.1 | 0.00 | 0.00 | 0.00 | 60 | 1008.6 |
| 20260902120748 | 17 | 6 | 4.8 | 16.1 | 0.00 | 0.00 | 0.00 | 60 | 1008.7 |
| 20260902115249 | 17 | 48 | 4.8 | 8.0 | 0.00 | 0.00 | 0.00 | 60 | 1008.8 |
| 20260902113752 | 17 | 65 | 3.2 | 11.3 | 0.00 | 0.00 | 0.00 | 60 | 1009.0 |
| 20260902112237 | 17 | 30 | 0.0 | 11.3 | 0.00 | 0.00 | 0.00 | 60 | 1008.8 |
| 20260902110820 | 17 | 15 | 3.2 | 6.4 | 0.00 | 0.00 | 0.00 | 60 | 1009.0 |
| 20260902105245 | 17 | 19 | 0.0 | 8.0 | 0.00 | 0.00 | 0.00 | 59 | 1009.1 |
| 20260902103747 | 17 | 31 | 1.6 | 8.0 | 0.00 | 0.00 | 0.00 | 58 | 1008.9 |
| 20260902102249 | 17 | 29 | 6.4 | 6.4 | 0.00 | 0.00 | 0.00 | 57 | 1009.1 |
| 20260902100755 | 17 | 32 | 3.2 | 8.0 | 0.00 | 0.00 | 0.00 | 56 | 1009.0 |
| 20260902095314 | 17 | 44 | 4.8 | 9.7 | 0.00 | 0.00 | 0.00 | 56 | 1009.2 |
| 20260902093756 | 17 | 47 | 1.6 | 6.4 | 0.00 | 0.00 | 0.00 | 57 | 1009.5 |
| 20260902092241 | 17 | 42 | 4.8 | 9.7 | 0.00 | 0.00 | 0.00 | 56 | 1008.4 |
| 20260902090746 | 17 | 34 | 9.7 | 9.7 | 0.00 | 0.00 | 0.00 | 55 | 1008.5 |
| 20260902085254 | 18 | 43 | 3.2 | 6.4 | 0.00 | 0.00 | 0.00 | 54 | 1008.6 |
| 20260902083816 | 18 | 43 | 3.2 | 14.5 | 0.00 | 0.00 | 0.00 | 53 | 1008.6 |
| 20260902082256 | 18 | 71 | 4.8 | 16.1 | 0.00 | 0.00 | 0.00 | 52 | 1008.6 |
| 20260902080801 | 18 | 55 | 1.6 | 16.1 | 0.00 | 0.00 | 0.00 | 52 | 1008.6 |
| 20260902075245 | 18 | 60 | 1.6 | 11.3 | 0.00 | 0.00 | 0.00 | 51 | 1008.6 |
| 20260902073806 | 19 | 69 | 8.0 | 16.1 | 0.00 | 0.00 | 0.00 | 50 | 1008.6 |
| 20260902072255 | 19 | 96 | 14.5 | 16.1 | 0.00 | 0.00 | 0.00 | 49 | 1008.7 |
| 20260902070817 | 19 | 90 | 9.7 | 22.5 | 0.00 | 0.00 | 0.00 | 49 | 1008.7 |
| 20260902065318 | 20 | 92 | 19.3 | 24.1 | 0.00 | 0.00 | 0.00 | 48 | 1008.7 |
| 20260902063802 | 20 | 76 | 8.0 | 20.9 | 0.00 | 0.00 | 0.00 | 47 | 1008.8 |
| 20260902062306 | 20 | 69 | 16.1 | 25.7 | 0.00 | 0.00 | 0.00 | 45 | 1008.8 |
| 20260902060743 | 21 | 100 | 9.7 | 24.1 | 0.00 | 0.00 | 0.00 | 44 | 1008.7 |
| 20260902055248 | 21 | 107 | 11.3 | 20.9 | 0.00 | 0.00 | 0.00 | 43 | 1008.8 |
| 20260902053749 | 21 | 88 | 9.7 | 24.1 | 0.00 | 0.00 | 0.00 | 43 | 1008.8 |
| 20260902052314 | 21 | 58 | 22.5 | 24.1 | 0.00 | 0.00 | 0.00 | 42 | 1008.8 |
| 20260902050753 | 21 | 67 | 16.1 | 30.6 | 0.00 | 0.00 | 0.00 | 41 | 1008.8 |
| 20260902045253 | 21 | 42 | 12.9 | 27.4 | 0.00 | 0.00 | 0.00 | 39 | 1008.7 |
| 20260902043741 | 22 | 53 | 8.0 | 27.4 | 0.00 | 0.00 | 0.00 | 38 | 1008.7 |
| 20260902042241 | 22 | 90 | 14.5 | 30.6 | 0.00 | 0.00 | 0.00 | 38 | 1009.0 |
| 20260902040745 | 22 | 48 | 19.3 | 29.0 | 0.00 | 0.00 | 0.00 | 38 | 1008.9 |
| 20260902035251 | 22 | 44 | 16.1 | 22.5 | 0.00 | 0.00 | 0.00 | 38 | 1009.0 |
| 20260902033751 | 22 | 73 | 16.1 | 27.4 | 0.00 | 0.00 | 0.00 | 39 | 1009.3 |
| 20260902032252 | 22 | 48 | 12.9 | 25.7 | 0.00 | 0.00 | 0.00 | 38 | 1009.3 |
| 20260902030801 | 22 | 77 | 3.2 | 19.3 | 0.00 | 0.00 | 0.00 | 38 | 1009.4 |
| 20260902025241 | 22 | 107 | 9.7 | 19.3 | 0.00 | 0.00 | 0.00 | 37 | 1009.4 |
| 20260902023750 | 23 | 21 | 11.3 | 20.9 | 0.00 | 0.00 | 0.00 | 37 | 1009.2 |
| 20260902022251 | 23 | 38 | 17.7 | 20.9 | 0.00 | 0.00 | 0.00 | 35 | 1009.2 |
| 20260902020752 | 23 | 29 | 4.8 | 16.1 | 0.00 | 0.00 | 0.00 | 34 | 1009.2 |
| 20260902015241 | 25 | 80 | 9.7 | 16.1 | 0.00 | 0.00 | 0.00 | 33 | 1009.0 |
| 20260902013742 | 25 | 57 | 4.8 | 17.7 | 0.00 | 0.00 | 0.00 | 32 | 1008.9 |
| 20260902012249 | 26 | 57 | 14.5 | 19.3 | 0.00 | 0.00 | 0.00 | 31 | 1009.0 |
| 20260902010749 | 26 | 76 | 9.7 | 20.9 | 0.00 | 0.00 | 0.00 | 30 | 1009.1 |
| 20260902005253 | 27 | 63 | 4.8 | 25.7 | 0.00 | 0.00 | 0.00 | 29 | 1009.2 |
| 20260902003738 | 27 | 75 | 20.9 | 30.6 | 0.00 | 0.00 | 0.00 | 28 | 1009.2 |
| 20260902002306 | 28 | 46 | 17.7 | 29.0 | 0.00 | 0.00 | 0.00 | 28 | 1009.3 |
| 20260902000743 | 28 | 53 | 20.9 | 27.4 | 0.00 | 0.00 | 0.00 | 28 | 1009.2 |
| 20260901235248 | 28 | 75 | 22.5 | 35.4 | 0.00 | 0.00 | 0.00 | 27 | 1009.4 |
| 20260901233749 | 28 | 80 | 17.7 | 24.1 | 0.00 | 0.00 | 0.00 | 27 | 1009.5 |
| 20260901232255 | 28 | 97 | 16.1 | 32.2 | 0.00 | 0.00 | 0.00 | 26 | 1009.5 |
| 20260901230756 | 29 | 96 | 17.7 | 35.4 | 0.00 | 0.00 | 0.00 | 26 | 1009.6 |
| 20260901225318 | 30 | 102 | 30.6 | 35.4 | 0.00 | 0.00 | 0.00 | 25 | 1009.8 |
| 20260901223741 | 30 | 83 | 11.3 | 25.7 | 0.00 | 0.00 | 0.00 | 25 | 1009.8 |
| 20260901222242 | 30 | 75 | 22.5 | 27.4 | 0.00 | 0.00 | 0.00 | 25 | 1009.9 |
| 20260901220745 | 30 | 69 | 11.3 | 32.2 | 0.00 | 0.00 | 0.00 | 25 | 1010.1 |
| 20260901215248 | 30 | 94 | 19.3 | 29.0 | 0.00 | 0.00 | 0.00 | 26 | 1010.3 |
| 20260901213749 | 30 | 76 | 22.5 | 33.8 | 0.00 | 0.00 | 0.00 | 26 | 1010.6 |
| 20260901212316 | 29 | 65 | 19.3 | 29.0 | 0.00 | 0.00 | 0.00 | 28 | 1010.7 |
| 20260901210757 | 30 | 70 | 19.3 | 27.4 | 0.00 | 0.00 | 0.00 | 27 | 1010.8 |
| 20260901205238 | 29 | 49 | 22.5 | 30.6 | 0.00 | 0.00 | 0.00 | 28 | 1011.0 |
| 20260901203749 | 28 | 84 | 19.3 | 27.4 | 0.00 | 0.00 | 0.00 | 28 | 1011.3 |
| 20260901202249 | 28 | 84 | 19.3 | 22.5 | 0.00 | 0.00 | 0.00 | 28 | 1011.3 |
| 20260901200756 | 28 | 102 | 17.7 | 25.7 | 0.00 | 0.00 | 0.00 | 29 | 1011.8 |
| 20260901195300 | 27 | 91 | 25.7 | 27.4 | 0.00 | 0.00 | 0.00 | 30 | 1012.0 |
| 20260901193802 | 27 | 88 | 14.5 | 29.0 | 0.00 | 0.00 | 0.00 | 31 | 1012.3 |
| 20260901192247 | 27 | 103 | 24.1 | 29.0 | 0.00 | 0.00 | 0.00 | 31 | 1012.5 |
| 20260901190749 | 27 | 53 | 6.4 | 25.7 | 0.00 | 0.00 | 0.00 | 31 | 1012.7 |
| 20260901185250 | 27 | 94 | 12.9 | 30.6 | 0.00 | 0.00 | 0.00 | 31 | 1012.9 |
| 20260901183755 | 27 | 107 | 17.7 | 30.6 | 0.00 | 0.00 | 0.00 | 29 | 1013.2 |
| 20260901182255 | 26 | 117 | 24.1 | 33.8 | 0.00 | 0.00 | 0.00 | 31 | 1013.2 |
| 20260901180740 | 26 | 102 | 24.1 | 29.0 | 0.00 | 0.00 | 0.00 | 32 | 1013.5 |
| 20260901175240 | 26 | 79 | 24.1 | 27.4 | 0.00 | 0.00 | 0.00 | 33 | 1013.4 |
| 20260901173803 | 25 | 115 | 14.5 | 27.4 | 0.00 | 0.00 | 0.00 | 33 | 1013.5 |
| 20260901172246 | 25 | 111 | 17.7 | 27.4 | 0.00 | 0.00 | 0.00 | 34 | 1013.8 |
| 20260901170749 | 25 | 107 | 19.3 | 25.7 | 0.00 | 0.00 | 0.00 | 35 | 1013.1 |
| 20260901165251 | 23 | 92 | 16.1 | 27.4 | 0.00 | 0.00 | 0.00 | 36 | 1013.3 |
| 20260901163756 | 23 | 109 | 12.9 | 22.5 | 0.00 | 0.00 | 0.00 | 37 | 1013.5 |
| 20260901162256 | 22 | 81 | 16.1 | 19.3 | 0.00 | 0.00 | 0.00 | 39 | 1013.5 |
| 20260901160802 | 21 | 121 | 16.1 | 20.9 | 0.00 | 0.00 | 0.00 | 40 | 1013.5 |
| 20260901155242 | 20 | 84 | 12.9 | 17.7 | 0.00 | 0.00 | 0.00 | 43 | 1013.7 |
| 20260901153743 | 18 | 136 | 4.8 | 17.7 | 0.00 | 0.00 | 0.00 | 48 | 1013.7 |
| 20260901152248 | 19 | 115 | 11.3 | 14.5 | 0.00 | 0.00 | 0.00 | 44 | 1013.7 |
| 20260901150809 | 18 | 79 | 6.4 | 9.7 | 0.00 | 0.00 | 0.00 | 47 | 1013.6 |
| 20260901145249 | 17 | 36 | 0.0 | 8.0 | 0.00 | 0.00 | 0.00 | 49 | 1013.6 |
| 20260901143755 | 16 | 36 | 4.8 | 9.7 | 0.00 | 0.00 | 0.00 | 52 | 1013.6 |
| 20260901142240 | 15 | 14 | 1.6 | 8.0 | 0.00 | 0.00 | 0.00 | 56 | 1013.8 |